Visibility
15.0 15.0 15.0 15.0 15.0 15.0 15.0 15.0 0.1 13.3 0.6 0.4 10.0 15.0 15.0 15.0 15.0 15.0 15.0 15.0 4.3 15.0 15.0 15.0 15.0 15.0 15.0 15.0 3.2 14.5 6.0 0.2 0.1 10.3 12.9 15.0 15.0 15.0 15.0 15.0 15.0 15.0 15.0 15.0
15.0 15.0 15.0 15.0 15.0 15.0 15.0 15.0 14.9 11.1 0.8 0.3 0.3 14.8 15.0 15.0 15.0 15.0 15.0 15.0 12.8 0.9 0.1 0.9 14.9 15.0 15.0 15.0 15.0 13.7 12.5 4.9 3.7 4.3 6.2 15.0 15.0 15.0 15.0 15.0 15.0 15.0 15.0 15.0
15.0 15.0 15.0 15.0 15.0 15.0 15.0 9.5 12.0 2.2 0.1 0.2 0.1 0.0 0.1 3.2 15.0 13.7 7.0 0.9 0.1 0.8 1.9 0.0 0.0 8.1 15.0 15.0 14.7 9.4 11.1 3.2 14.7 15.0 10.2 14.6 15.0 15.0 15.0 15.0 15.0 15.0 15.0 14.8
15.0 15.0 0.3 8.7 3.8 12.6 6.6 0.0 0.0 0.0 0.1 0.2 0.1 2.0 7.4 8.9 0.7 0.1 0.1 0.0 0.0 0.1 0.2 0.2 0.1 0.0 6.9 15.0 11.0 13.9 3.4 9.3 7.1 14.3 15.0 14.6 15.0 15.0 15.0 15.0 15.0 12.2 13.9 15.0
1.0 14.6 15.0 14.9 0.1 0.1 0.1 0.0 0.7 0.1 13.6 12.4 15.0 15.0 1.1 8.2 2.9 0.1 0.0 0.0 0.0 0.0 0.2 15.0 0.1 0.0 0.0 3.1 9.3 13.8 0.2 0.8 9.3 6.0 2.2 7.8 8.0 11.0 15.0 14.1 15.0 15.0 15.0 15.0
1.4 0.1 0.7 0.2 15.0 8.4 0.0 0.0 0.0 1.4 15.0 15.0 4.6 0.1 0.5 0.7 1.6 0.1 0.0 0.0 0.0 0.1 13.8 0.6 0.1 0.0 0.1 0.1 0.1 0.1 0.1 0.1 0.1 0.3 2.9 0.4 2.3 2.0 1.8 0.8 1.7 3.4 14.7 2.8
12.4 0.9 10.3 0.2 0.1 0.0 0.1 0.0 7.4 15.0 15.0 15.0 0.6 3.1 0.7 0.2 0.1 0.0 0.0 0.1 0.1 0.0 0.0 0.0 0.0 12.2 0.2 0.1 0.1 0.1 0.1 0.9 1.7 0.1 0.1 0.1 0.0 0.5 0.4 0.7 1.0 1.7 2.0 1.2
0.3 0.1 0.2 14.0 4.5 0.2 0.0 0.1 15.0 15.0 15.0 15.0 0.8 0.2 0.2 0.3 0.0 0.2 0.4 6.5 1.7 1.2 0.2 0.1 2.1 15.0 0.2 0.1 0.1 0.1 0.1 0.2 0.1 0.2 0.1 0.3 0.2 0.1 0.1 0.1 0.1 0.1 0.2 0.2
0.1 0.1 0.0 0.0 0.0 0.0 0.0 0.3 0.2 1.4 0.8 4.6 3.1 0.2 0.2 0.3 0.7 0.2 0.5 4.1 4.2 2.4 6.5 15.0 7.5 1.9 6.2 0.1 0.1 0.1 0.1 0.1 0.1 0.2 0.2 0.2 0.2 0.1 0.2 0.1 0.1 0.1 0.2 0.1
0.2 0.1 0.2 0.0 0.0 0.1 0.1 0.4 2.1 15.0 5.9 15.0 1.1 0.3 0.3 0.5 0.5 1.6 0.8 0.4 7.3 15.0 9.0 0.4 0.3 0.5 12.7 14.1 1.5 0.2 0.1 0.1 0.1 0.2 0.1 0.2 0.2 0.1 0.2 0.1 0.1 0.1 0.1 0.3
0.6 0.2 0.3 0.4 0.1 0.1 1.0 0.7 1.8 2.8 12.9 2.2 3.4 0.8 4.7 1.2 0.6 1.2 2.3 0.6 0.7 4.3 5.0 0.4 0.2 0.2 0.2 0.0 3.5 1.0 0.2 0.1 0.1 0.3 0.2 0.2 0.2 0.2 0.3 0.1 0.1 0.1 0.1 0.1
0.5 2.5 6.8 0.1 0.3 5.0 0.2 0.4 13.5 13.8 4.2 2.5 14.0 0.6 2.3 0.8 1.6 0.7 0.7 1.4 1.4 0.8 4.1 1.4 7.7 0.4 0.2 0.3 0.5 1.1 12.4 15.0 13.5 14.4 15.0 15.0 10.6 0.9 6.1 11.4 13.4 15.0 14.3 11.5
2.2 0.5 0.9 0.0 3.4 14.7 0.3 1.1 10.9 11.7 8.1 14.8 12.8 5.5 0.5 0.5 0.9 0.8 0.5 1.6 0.6 0.2 0.3 0.7 1.1 2.1 0.5 0.4 13.7 15.0 2.6 1.6 3.2 15.0 15.0 15.0 15.0 15.0 2.4 8.2 15.0 15.0 15.0 15.0
0.0 4.1 5.0 1.9 8.4 15.0 15.0 15.0 15.0 15.0 15.0 15.0 15.0 10.1 0.4 0.9 7.2 12.0 2.3 3.5 8.2 3.4 1.1 0.4 0.2 0.1 0.2 0.2 0.9 12.0 15.0 15.0 14.4 6.5 3.4 15.0 15.0 10.1 15.0 7.3 1.6 1.0 0.5 3.8
0.1 2.7 15.0 15.0 8.3 13.0 15.0 15.0 15.0 15.0 10.1 15.0 15.0 15.0 15.0 15.0 6.0 1.1 13.3 15.0 15.0 15.0 10.8 15.0 12.5 8.8 15.0 7.8 1.6 9.9 15.0 15.0 15.0 15.0 15.0 8.8 4.2 11.2 10.8 12.1 9.7 4.8 15.0 15.0
0.0 6.8 11.9 15.0 15.0 7.9 15.0 15.0 15.0 15.0 14.9 15.0 15.0 15.0 15.0 15.0 7.3 7.0 15.0 15.0 13.4 6.5 15.0 15.0 15.0 15.0 15.0 15.0 15.0 15.0 15.0 15.0 15.0 15.0 15.0 15.0 15.0 15.0 15.0 15.0 15.0 15.0 15.0 5.5
0.1 0.2 0.7 0.2 15.0 15.0 14.9 15.0 15.0 15.0 3.9 13.9 14.8 15.0 15.0 15.0 15.0 15.0 9.7 15.0 15.0 15.0 15.0 15.0 15.0 15.0 15.0 15.0 15.0 15.0 15.0 15.0 15.0 15.0 15.0 15.0 15.0 15.0 15.0 15.0 15.0 15.0 4.1 7.3
0.1 0.1 0.2 4.8 15.0 15.0 8.9 15.0 14.9 13.5 4.2 4.7 11.4 15.0 15.0 12.2 3.0 3.7 4.6 9.5 15.0 15.0 15.0 15.0 15.0 15.0 15.0 15.0 15.0 15.0 15.0 15.0 15.0 15.0 15.0 15.0 15.0 15.0 15.0 15.0 15.0 15.0 6.5 7.9
9.5 9.4 15.0 15.0 15.0 15.0 12.1 5.2 3.7 11.7 15.0 12.3 15.0 6.9 4.3 4.0 4.1 5.0 1.5 8.4 15.0 15.0 15.0 15.0 15.0 15.0 15.0 15.0 15.0 15.0 15.0 15.0 10.5 4.8 15.0 13.3 15.0 15.0 9.3 6.8 8.4 4.6 12.8 13.0
11.2 15.0 15.0 10.4 15.0 15.0 4.8 6.0 15.0 12.9 7.2 15.0 12.0 15.0 4.2 4.1 3.8 15.0 15.0 15.0 14.5 15.0 15.0 15.0 15.0 15.0 15.0 15.0 11.3 15.0 15.0 5.8 14.3 3.7 4.1 15.0 15.0 13.6 4.1 5.0 4.4 6.9 4.1 5.1
4.4 11.2 7.0 5.8 2.8 4.2 13.8 14.1 15.0 4.6 4.1 15.0 15.0 6.1 15.0 14.7 12.9 2.8 4.4 6.9 15.0 15.0 15.0 15.0 15.0 15.0 15.0 12.3 12.2 9.5 5.4 4.0 4.1 2.7 2.1 2.4 3.1 4.0 4.1 1.5 1.1 2.5 3.7 4.1
4.3 4.1 3.2 4.4 4.1 4.0 4.1 10.7 15.0 15.0 15.0 15.0 8.6 7.0 13.8 15.0 15.0 14.2 7.2 15.0 14.9 15.0 15.0 15.0 15.0 15.0 11.6 5.2 15.0 11.0 10.4 15.0 2.3 0.9 0.6 0.4 0.3 0.4 0.4 0.4 0.7 1.4 1.8 2.6
4.1 4.1 4.2 11.5 11.5 10.6 4.2 15.0 15.0 15.0 15.0 8.7 4.1 5.5 10.1 11.4 12.9 5.9 11.9 15.0 14.5 14.3 15.0 15.0 15.0 15.0 15.0 4.1 10.7 10.7 6.3 4.5 4.1 4.1 12.0 8.4 4.0 2.6 1.5 6.8 2.2 1.8 1.2 0.5
4.1 4.2 7.5 14.1 15.0 15.0 15.0 15.0 15.0 15.0 9.7 15.0 15.0 15.0 15.0 4.1 6.5 15.0 14.0 15.0 15.0 4.9 7.8 15.0 15.0 15.0 15.0 4.6 10.8 15.0 9.1 4.1 14.2 14.4 14.1 3.7 2.4 2.2 3.2 4.5 14.1 4.0 4.8 5.6
13.7 15.0 15.0 15.0 15.0 15.0 15.0 15.0 15.0 15.0 15.0 15.0 15.0 15.0 15.0 15.0 15.0 15.0 15.0 15.0 12.4 15.0 15.0 15.0 15.0 15.0 15.0 11.4 4.1 12.6 15.0 4.2 14.1 15.0 15.0 13.3 12.4 6.6 4.1 1.7 3.3 15.0 4.1 6.5
15.0 15.0 15.0 15.0 10.2 15.0 15.0 15.0 5.4 9.2 9.7 2.6 1.7 11.2 15.0 10.3 15.0 5.5 10.7 10.4 15.0 12.2 9.1 5.5 15.0 15.0 15.0 13.8 4.1 3.9 7.4 15.0 3.9 8.5 9.8 15.0 4.1 5.2 4.1 4.3 0.8 1.0 1.7 5.3
15.0 14.7 15.0 14.6 15.0 15.0 15.0 15.0 10.8 3.9 7.7 15.0 12.6 8.5 4.1 0.6 1.1 15.0 9.4 6.4 11.5 15.0 15.0 15.0 10.4 4.3 1.0 1.9 4.6 14.0 15.0 7.7 4.1 4.0 3.0 3.0 1.0 1.7 5.4 8.5 5.8 5.0 3.8 0.8